This is the latest recevied weather packets stored in our database for station/object SQ6XL-13. If no packets are shown the sender has not sent any weather packets the latest 1 day(s).
| Time | Temp. | Humidity | Pressure | Rain* | Wind** | Luminosity | Snow |
|---|---|---|---|---|---|---|---|
| 1777980412 | 25.56° C | 37% | 1007.7 hPa | 0 mm | - | - | - |
| 1777979822 | 25.56° C | 37% | 1007.8 hPa | 0 mm | - | - | - |
| 1777979257 | 26.11° C | 36% | 1007.8 hPa | 0 mm | - | - | - |
| 1777978737 | 26.11° C | 36% | 1007.9 hPa | 0 mm | - | - | - |
| 1777978225 | 25° C | 37% | 1008 hPa | 0 mm | - | - | - |
| 1777977712 | 24.44° C | 38% | 1008 hPa | 0 mm | - | - | - |
| 1777977147 | 24.44° C | 37% | 1008.1 hPa | 0 mm | - | - | - |
| 1777976587 | 23.89° C | 41% | 1008.2 hPa | 0 mm | - | - | - |
| 1777976097 | 23.89° C | 40% | 1008.2 hPa | 0 mm | - | - | - |
| 1777975512 | 23.89° C | 41% | 1008.3 hPa | 0 mm | - | - | - |
| 1777975007 | 23.89° C | 41% | 1008.4 hPa | 0 mm | - | - | - |
| 1777974497 | 23.33° C | 42% | 1008.5 hPa | 0 mm | - | - | - |
| 1777973917 | 23.33° C | 40% | 1008.6 hPa | 0 mm | - | - | - |
| 1777973397 | 22.78° C | 42% | 1008.5 hPa | 0 mm | - | - | - |
| 1777972881 | 22.78° C | 42% | 1008.6 hPa | 0 mm | - | - | - |
| 1777972307 | 22.22° C | 42% | 1008.5 hPa | 0 mm | - | - | - |
| 1777971812 | 22.22° C | 43% | 1008.7 hPa | 0 mm | - | - | - |
| 1777971327 | 22.22° C | 42% | 1008.7 hPa | 0 mm | - | - | - |
| 1777970822 | 21.67° C | 42% | 1008.9 hPa | 0 mm | - | - | - |
| 1777970327 | 21.67° C | 44% | 1009 hPa | 0 mm | - | - | - |
| 1777969737 | 21.67° C | 45% | 1009 hPa | 0 mm | - | - | - |
| 1777969222 | 21.67° C | 43% | 1009.2 hPa | 0 mm | - | - | - |
| 1777968732 | 21.67° C | 44% | 1009.3 hPa | 0 mm | - | - | - |
| 1777968222 | 21.67° C | 44% | 1009.2 hPa | 0 mm | - | - | - |
| 1777967637 | 21.11° C | 44% | 1009.3 hPa | 0 mm | - | - | - |
* Rain latest hour (hover to see other rain measurements)
** Current wind speed in m/s (hover to see current wind gust speed)